Location: Cahen
(50.7886°N, 1.9562°E)
Time: 10:36:09
(UTC+00:00)

Daily predictions for brighter satellites

Satellite Brightness Start Highest point End
(mag) Time Altitude Azimuth Time Altitude Azimuth Time Altitude Azimuth
Cosmos 2263 Rocket 2.5 17:26:27 10° SW 17:32:07 73° WNW 17:37:47 10° NNE
NOSS 2-1 (E) 4.4 17:28:54 10° NW 17:34:06 74° NE 17:41:22 10° SE
Okean-O 2.8 17:29:52 10° SSE 17:34:18 81° WSW 17:38:46 10° NNW
CSL-04 Rocket 4.0 17:29:24 10° SE 17:34:42 48° ENE 17:39:58 10° N
CZ-2D R/B 4.5 17:33:24 10° ESE 17:36:26 23° ENE 17:39:30 10° NNE
Cosmos 1271 Rocket 3.2 17:32:45 10° N 17:36:30 41° ENE 17:40:17 10° SE
Cosmos 1726 Rocket 4.4 17:33:25 10° SSE 17:37:11 28° E 17:40:57 10° NNE
BREEZE M DEB (TANK) 1.8 17:37:48 10° W 17:39:51 57° S 17:43:25 10° ESE
Cosmos 1821 Rocket 4.0 17:35:47 10° N 17:41:52 63° ENE 17:47:55 10° SSE
Unknown 4.2 17:39:08 10° SW 17:42:56 40° SE 17:46:45 10° ENE
Lacrosse 5 2.6 17:38:12 10° WNW 17:43:02 41° N 17:47:50 10° ENE
Cosmos 1953 2.7 17:40:29 10° SSE 17:44:20 44° E 17:48:14 10° NNE
Cosmos 2058 Rocket 4.1 17:41:01 10° SE 17:44:27 23° E 17:47:53 10° NE
Cosmos 1833 Rocket 3.8 17:40:28 10° NNW 17:45:04 25° NE 17:49:39 10° E
Cosmos 1703 4.3 17:45:26 10° NNE 17:48:47 25° ENE 17:52:05 10° SE
Cosmos 1758 3.2 17:45:12 10° S 17:49:11 82° E 17:53:11 10° NNE
Unknown 4.4 17:46:08 10° SSW 17:49:55 35° SE 17:53:28 11° E
Unknown 4.4 17:46:12 10° SSW 17:49:59 36° SE 17:53:32 11° E
Unknown 4.4 17:46:59 10° SSW 17:50:46 36° SE 17:54:18 12° E
COBE Rocket 4.0 17:45:48 10° NNE 17:50:59 66° E 17:56:05 10° S
SL-24 R/B - RUBIN 2 4.4 17:46:19 10° SW 17:51:12 66° NW 17:56:47 10° NE
Nadezhda 3 Rocket 4.0 17:45:04 10° S 17:51:13 62° E 17:57:29 10° NNE
H-2A R/B 4.3 17:49:16 10° S 17:52:57 42° W 17:56:43 10° NNW
Cosmos 1626 2.8 17:49:48 10° NNW 17:53:30 60° W 17:57:09 10° S
Cosmos 2228 3.4 17:50:06 10° SSE 17:54:15 43° E 17:58:23 10° NNE
Unknown 4.3 17:51:03 10° SSW 17:54:53 38° SE 17:58:16 13° E
Unknown 4.3 17:51:03 10° SSW 17:54:54 38° SE 17:58:16 13° E
COSMOS 2406 3.6 17:50:30 10° NNW 17:56:05 47° NE 18:01:37 10° SE
Unknown 4.2 17:52:45 10° SW 17:56:38 40° SE 17:59:59 13° E
Cosmos 371 Rocket 4.2 17:53:34 10° SW 17:58:15 52° WNW 18:02:59 10° NNE
Cosmos 1934 Rocket 4.1 17:52:17 10° N 17:58:30 56° ENE 18:04:43 10° SSE
Unknown 4.2 17:56:01 10° SW 17:59:55 42° SSE 18:03:10 14° E
Cosmos 2082 Rocket 3.4 17:55:45 10° NNW 18:00:22 24° NE 18:04:05 13° E
Envisat 3.2 17:55:25 10° S 18:00:30 76° WSW 18:05:37 10° NNW
Unknown 4.2 17:56:40 10° SW 18:00:34 41° SSE 18:03:45 14° E
Unknown 4.2 17:57:37 10° SW 18:01:31 42° SSE 18:04:41 15° E
COSMO-SKYMED 1 2.5 17:57:12 10° NNE 18:01:32 65° ESE 18:05:51 10° S
Cosmos 1726 3.0 18:00:56 10° SSE 18:04:03 27° E 18:07:11 10° NNE
Cosmos 304 Rocket 3.8 17:59:28 10° SSW 18:04:18 88° ESE 18:09:08 10° NNE
Unknown 4.2 18:00:48 10° SW 18:04:44 42° SSE 18:07:45 16° E
ATLAS CENTAUR R/B 3.9 18:02:27 10° NW 18:05:38 17° NNW 18:08:43 10° NNE
FengYun 1-2 T 4.4 18:00:08 10° SSE 18:05:48 85° WSW 18:11:28 10° NNW
Cosmos 921 Rocket 3.7 18:02:22 10° SSE 18:06:26 34° E 18:10:29 10° NE
Cosmos 1939 Rocket 3.3 18:02:45 10° SE 18:06:27 40° ENE 18:10:15 10° N
Unknown 4.1 18:04:10 10° SW 18:08:07 45° SSE 18:11:02 17° E
Unknown 4.0 18:05:48 10° SW 18:09:47 46° SSE 18:12:38 17° E
Unknown 4.0 18:07:29 10° SW 18:11:28 48° SSE 18:14:16 18° E
Unknown 4.0 18:09:07 10° SW 18:13:07 49° SSE 18:15:52 19° E
CSL-04 Debris 4.2 18:08:01 10° SSE 18:13:28 90° SSW 18:19:00 10° NNW
Lacrosse 5 rocket 1.6 18:10:12 10° WNW 18:13:54 59° SW 18:17:43 10° SE
Cosmos 1356 4.2 18:11:15 10° SSE 18:14:14 28° E 18:17:16 10° NNE
Cosmos 1825 Rocket 4.1 18:10:13 10° NNW 18:14:32 64° W 18:18:52 10° S
Cosmos 1953 Rocket 3.5 18:10:41 10° N 18:15:07 89° W 18:19:29 10° S
Unknown 3.9 18:12:23 10° SW 18:16:24 51° SSE 18:19:02 20° E
USA 116 3.2 18:14:30 10° NNE 18:17:33 54° ESE 18:20:42 10° S
Unknown 3.9 18:14:04 10° SW 18:18:05 52° SSE 18:20:40 21° E
Unknown 3.9 18:15:42 10° SW 18:19:44 53° SSE 18:22:15 21° E
Cosmos 2084 3.9 18:16:31 10° SSW 18:20:50 45° SE 18:24:06 16° ENE
Unknown 3.8 18:17:18 10° SW 18:21:20 53° SSE 18:23:47 22° E
Unknown 3.8 18:17:56 10° SW 18:21:59 55° SSE 18:24:25 22° E
CZ-4 R/B 2.2 18:19:20 10° S 18:23:25 57° W 18:27:35 10° NNW
Cosmos 1354 Rocket 4.5 18:18:15 10° NNW 18:23:26 64° WSW 18:28:36 10° S
Unknown 3.8 18:20:29 10° SW 18:24:31 53° SSE 18:26:49 24° E
FALCON 9 DEB 3.5 18:21:07 10° W 18:24:34 57° N 18:26:23 25° ENE
Unknown 3.5 18:21:39 10° W 18:25:09 58° N 18:27:00 25° ENE
Cosmos 1242 Rocket 2.4 18:22:49 10° N 18:26:32 76° ENE 18:30:12 10° SSE
Meteor 1-16 Rocket 4.1 18:22:16 10° S 18:27:48 67° E 18:33:12 10° NNE
Unknown 3.8 18:23:49 10° SW 18:27:52 56° SSE 18:30:02 25° E
Cosmos 1328 3.7 18:24:29 10° N 18:28:30 72° ENE 18:32:27 10° SSE
Unknown 3.8 18:25:29 10° SW 18:29:32 57° SSE 18:31:39 26° E
ADEOS Rocket 4.3 18:23:44 10° NNE 18:30:03 26° E 18:36:07 10° SE
Unknown 3.4 18:26:16 10° WSW 18:30:10 88° NNW 18:32:18 26° ENE
Unknown 2.4 18:27:58 10° WNW 18:30:37 76° SSW 18:31:23 42° SE
Cosmos 1844 Rocket 2.6 18:25:23 10° SSW 18:31:02 81° ESE 18:36:43 10° NNE
Unknown 3.7 18:27:17 10° SW 18:31:23 61° SSE 18:33:29 27° E
Cosmos 1606 Rocket 3.8 18:27:40 10° SSW 18:32:04 71° W 18:36:27 10° N
Unknown 3.7 18:28:43 10° SW 18:32:48 59° SSE 18:34:48 28° E
Cosmos 1908 3.6 18:30:38 10° SSE 18:34:18 41° E 18:38:00 10° NNE
Unknown 3.7 18:30:25 10° SW 18:34:30 61° SSE 18:36:26 29° E
Unknown 3.4 18:31:00 10° WSW 18:34:51 79° NNW 18:36:44 28° ENE
Unknown 3.5 18:33:07 10° W 18:36:51 68° N 18:38:33 30° ENE
Unknown 3.7 18:33:38 10° SW 18:37:43 63° SSE 18:39:32 31° E
ASTEX 1 3.8 18:33:39 10° N 18:38:34 68° W 18:43:28 10° SSW
Unknown 3.6 18:35:23 10° SW 18:39:29 64° SSE 18:41:14 32° E
Unknown 3.4 18:36:57 10° WNW 18:40:19 58° N 18:41:24 37° ENE
Unknown 3.6 18:37:01 10° SW 18:41:08 65° SSE 18:42:48 33° E
SPOT 3 Rocket 4.1 18:39:51 25° ESE 18:42:07 37° ENE 18:46:53 10° N
Meteor 2-10 3.8 18:37:10 10° S 18:42:13 67° E 18:47:14 10° NNE
Unknown 3.6 18:38:42 10° SW 18:42:49 67° SSE 18:44:26 35° E
Ariane Rocket 2.9 18:37:55 10° SSE 18:43:01 83° ENE 18:48:10 10° NNW
Cosmos 2278 Rocket 2.9 18:39:50 10° SSE 18:44:42 30° ESE 18:46:34 25° ENE
Unknown 3.6 18:42:00 10° WSW 18:46:07 69° SSE 18:47:37 37° E
Cosmos 489 Rocket 4.5 18:40:38 10° S 18:46:39 55° ESE 18:52:41 10° NNE
SWAS 4.3 18:42:38 10° SSW 18:46:52 66° ESE 18:50:17 16° NE
Cosmos 1844 3.7 18:41:39 10° SSW 18:47:22 85° ESE 18:53:12 10° NNE
Falcon 9 debris 3.4 18:44:27 10° WNW 18:47:52 58° N 18:48:41 43° ENE
Unknown 3.5 18:43:45 10° WSW 18:47:52 72° SSE 18:49:19 38° E
Unknown 3.5 18:43:56 10° WSW 18:48:04 76° SSE 18:49:34 38° E
Cosmos 2058 4.1 18:45:19 10° N 18:48:12 25° NE 18:48:12 25° NE
Unknown 3.5 18:45:36 10° WNW 18:49:05 58° N 18:49:56 43° ENE
Unknown 3.5 18:45:32 10° WSW 18:49:40 76° SSE 18:51:06 40° E
Unknown 3.5 18:48:34 10° WSW 18:52:42 74° SSE 18:53:57 43° E
Cosmos 1992 Rocket 4.4 18:49:15 10° SW 18:54:26 66° WNW 18:59:40 10° NNE
Unknown 3.5 18:51:54 10° WSW 18:56:02 77° SSE 18:57:09 47° E
USA 234 4.3 18:57:30 23° SE 18:57:30 23° SE 19:01:59 10° S
CZ-4C R/B 4.4 18:51:07 10° NW 18:57:33 35° WSW 19:04:40 10° S
Unknown 3.5 18:53:37 10° WSW 18:57:46 78° SSE 18:58:49 48° E
YAOGAN 1 4.3 18:54:33 10° SSW 18:58:30 34° W 19:02:29 10° NNW
Unknown 3.5 18:55:13 10° WSW 18:59:22 79° SSE 19:00:21 50° E
Cosmos 1777 Rocket 3.9 18:54:51 10° NNW 19:00:07 88° ENE 19:03:37 21° SSE
Unknown 3.5 18:56:56 10° WSW 19:01:05 81° SSE 19:02:00 53° E
H-2A R/B 2.4 18:59:39 36° ESE 19:01:07 45° ENE 19:06:14 10° N
Unknown 2.8 18:58:33 10° WNW 19:01:36 84° W 19:01:36 84° W
SJ-11-01 4.2 18:59:52 27° SSE 19:02:21 68° ENE 19:07:02 10° N
ATLAS 5 CENTAUR R/B 2.2 18:58:58 10° WSW 19:03:17 57° NW 19:07:08 16° NE
USA 186 4.1 19:06:43 13° N 19:06:43 13° N 19:07:06 10° N
SL-4 R/B 3.9 19:02:54 10° W 19:05:43 20° SW 19:07:19 15° S
Unknown 3.5 19:03:23 10° WSW 19:07:29 90° S 19:08:10 61° ENE
Unknown 3.5 19:03:32 10° WSW 19:07:42 85° SSE 19:08:22 61° ENE
Unknown 3.5 19:05:11 10° WSW 19:09:20 86° SSE 19:09:57 64° ENE
Unknown 3.5 19:06:53 10° WSW 19:11:02 88° SSE 19:11:35 67° ENE
CZ-2C R/B 3.8 19:10:54 38° E 19:11:38 39° ENE 19:16:59 10° N
HJ-1C 4.1 19:10:36 25° SSW 19:12:18 53° W 19:15:37 10° NNW
Unknown 3.5 19:08:31 10° WSW 19:12:41 89° SSE 19:13:09 69° ENE
FREGAT/IRIS 4.2 19:14:42 28° NNW 19:14:42 28° NNW 19:16:11 10° NNW
Unknown 3.5 19:10:09 10° WSW 19:14:18 90° SW 19:14:43 72° ENE
Gbstr 26 Del rocket 4.1 19:08:11 10° WNW 19:14:25 86° SSW 19:17:24 39° ESE
Cosmos 1076 Rocket 3.5 19:10:26 10° N 19:14:47 62° ENE 19:14:49 62° E
Cosmos 2084 Rocket 4.3 19:11:07 10° NW 19:15:16 37° NNE 19:15:23 37° NE
Cosmos 1461 2.9 19:11:59 10° NW 19:15:57 62° NE 19:15:57 62° NE
Unknown 3.5 19:13:33 10° WSW 19:17:43 88° NNW 19:18:00 77° ENE
NOSS 3-3 (A) 4.5 19:10:58 10° NW 19:18:11 66° NE 19:21:23 38° ESE
NOSS 3-3 (C) 4.5 19:11:03 10° NW 19:18:17 66° NE 19:21:28 39° ESE
Cosmos 1339 Rocket 4.4 19:12:22 10° S 19:18:27 84° W 19:24:38 10° N
Starlink (trailer) 3.5 19:15:11 10° WSW 19:19:21 87° N 19:19:33 80° NE
Unknown 3.5 19:16:52 10° WSW 19:21:01 86° NNW 19:21:10 82° NE
Unknown 3.5 19:17:56 10° W 19:22:00 76° NNW 19:22:07 75° N
Cosmos 2058 Rocket 4.3 19:18:03 10° SW 19:22:12 42° WNW 19:26:22 10° N
Unknown 3.5 19:18:29 10° WSW 19:22:39 85° NNW 19:22:44 84° NNE
SJ-6B 3.0 19:25:00 60° N 19:25:00 60° N 19:28:11 10° NNW
Lacrosse 5 1.8 19:21:31 10° WNW 19:26:36 70° NNE 19:27:11 63° ENE
BREEZE-M DEB (TANK) 3.7 19:21:02 10° SW 19:27:40 35° S 19:27:40 35° S
Unknown 3.6 19:25:09 10° WSW 19:29:07 78° WNW 19:29:07 78° WNW
Unknown 3.6 19:25:13 10° WSW 19:29:11 78° WNW 19:29:11 78° WNW
Cosmos 1833 Rocket 2.6 19:24:02 10° NNW 19:29:42 83° WSW 19:31:28 46° SSE
Unknown 3.7 19:26:00 10° WSW 19:29:57 77° WNW 19:29:57 77° WNW
Cosmos 1459 Rocket 3.9 19:24:21 10° N 19:30:31 68° ENE 19:32:12 48° SE
Resurs 01 Rocket 2.9 19:35:39 30° NNE 19:35:39 30° NNE 19:38:12 10° N
Unknown 3.8 19:30:09 10° WSW 19:33:55 70° WNW 19:33:55 70° WNW
ARGOS 3.0 19:34:27 62° SE 19:35:19 76° ENE 19:40:46 10° NNW
Cosmos 1727 Rocket 3.9 19:29:20 10° S 19:35:32 88° W 19:41:45 10° N
Unknown 3.9 19:31:56 10° W 19:35:38 67° WNW 19:35:38 67° WNW
Cosmos 1802 Rocket 4.0 19:31:24 10° N 19:37:49 65° ENE 19:38:55 56° ESE
Cosmos 1726 4.3 19:36:08 10° SW 19:39:15 26° WNW 19:42:23 10° NNW
Unknown 4.0 19:35:14 10° W 19:38:49 62° WNW 19:38:49 62° WNW
Unknown 4.0 19:35:52 10° W 19:39:24 61° WNW 19:39:24 61° WNW
Cosmos 1898 Rocket 4.0 19:35:48 10° NNW 19:40:09 44° NNE 19:40:09 44° NNE
Unknown 4.1 19:36:50 10° W 19:40:20 60° WNW 19:40:20 60° WNW
SL-08 RB Rocket 4.4 19:42:58 44° NNE 19:42:58 44° NNE 19:46:15 10° N
Unknown 4.2 19:40:03 10° W 19:43:24 55° W 19:43:24 55° W
Cosmos 2082 Rocket 2.1 19:39:28 10° NNW 19:45:15 89° WSW 19:45:57 70° SSE
ATLAS CENTAUR R/B 3.8 19:43:26 10° NNW 19:46:20 16° N 19:46:39 16° NNE
Cosmos 292 Rocket 4.4 19:42:12 10° SW 19:46:51 53° WNW 19:51:32 10° NNE
Unknown 4.4 19:43:29 10° W 19:46:42 51° W 19:46:42 51° W
Unknown 4.5 19:45:09 10° W 19:48:18 49° W 19:48:18 49° W
Cosmos 2173 Rocket 3.9 19:43:43 10° N 19:50:05 90° SW 19:51:41 54° S
Lacrosse 5 rocket 4.0 19:51:14 10° WSW 19:52:24 11° SW 19:53:24 10° SW
SJ 16-02 3.2 19:52:46 10° N 19:54:38 22° N 19:54:38 22° N
Cosmos 1725 Rocket 4.1 19:59:17 10° N 20:04:50 63° NE 20:04:50 63° NE
Cosmos 2100 Rocket 4.2 19:59:48 10° NNW 20:05:59 67° W 20:07:48 45° SSW
Cosmos 1000 Rocket 4.4 20:12:39 86° WNW 20:12:39 86° WNW 20:18:56 10° N
In-Cosmos 22 Rocket 4.4 20:10:14 10° NNW 20:15:07 63° WNW 20:15:07 63° WNW
ADEOS Rocket 3.5 20:08:30 10° NNE 20:16:21 83° WNW 20:23:49 10° SSW
Cosmos 2278 Rocket 2.7 20:22:56 10° SW 20:28:31 56° NW 20:28:36 56° NW
Cosmos 2016 Rocket 4.2 20:26:47 10° NNW 20:32:47 65° W 20:32:47 65° W
Cosmos 2061 Rocket 4.3 20:29:03 10° NNW 20:35:13 60° W 20:35:14 60° W
H-2A R/B 3.5 20:40:17 32° WSW 20:40:41 32° W 20:45:30 10° NNW
Terra 4.5 20:46:39 12° N 20:46:39 12° N 20:47:00 10° N
ATLAS 5 CENTAUR R/B 3.9 20:45:12 10° WNW 20:48:41 23° NNW 20:48:41 23° NNW
CZ-2C R/B 4.3 20:51:58 42° W 20:51:58 42° W 20:56:58 10° NNW
Lacrosse 5 4.2 21:04:44 10° WNW 21:06:22 19° WNW 21:06:22 19° WNW
Resurs 01 Rocket 4.4 21:13:14 16° NW 21:13:14 16° NW 21:14:22 10° NW
